Weather History for KEVV - October, 2013

Change the Weather History Date:

Friday, October 4, 2013

  Actual Average Record
Temperature  
Mean Temperature 77 °F 62 °F  
Max Temperature 84 °F 74 °F 92 °F (1954)
Min Temperature 69 °F 49 °F 31 °F (1987)
Degree Days  
Heating Degree Days 0 5  
Month to date heating degree days 0 20  
Since 1 July heating degree days 10 67  
Cooling Degree Days 12 2  
Month to date cooling degree days 43 8  
Year to date cooling degree days 1450 1374  
Growing Degree Days 26 (Base 50)    
Moisture  
Dew Point 68 °F    
Average Humidity 78    
Maximum Humidity 90    
Minimum Humidity 65    
Precipitation  
Precipitation 0.11 in 0.11 in 3.66 in (1910)
Month to date precipitation 1.09 0.42  
Year to date precipitation 39.23 34.39  
Snow  
Snow 0.00 in 0.00 in 0.00 in (2002)
Month to date snowfall 0.0 0.0  
Since 1 July snowfall 0.0 0.0  
Since 1 September snowfall 0.0 0.0  
Snow Depth 0.00 in    
Sea Level Pressure  
Sea Level Pressure 30.02 in    
Wind  
Wind Speed 4 mph (SSE)    
Max Wind Speed 12 mph    
Max Gust Speed 15 mph    
Visibility 9 miles    
Events Rain    
T = Trace of Precipitation, MM = Missing Value Source: NWS Daily Summary

Daily Weather History Graph

Daily Weather History Graph

Search for Another Location

Airport or City:

Trip Planner

Search our weather history database for the weather conditions in past years. The results will help you decide how hot, cold, wet, or windy it might be!

Date:

Astronomy

Oct. 04, 2013 Rise Set
Actual Time 6:48 AM CDT 6:28 PM CDT
Civil Twilight 6:22 AM CDT 6:54 PM CDT
Nautical Twilight 5:51 AM CDT 7:24 PM CDT
Astronomical Twilight 5:21 AM CDT 7:55 PM CDT
Moon 6:23 AM CDT (10/4) 6:10 PM CDT (10/4)
Length of Visible Light 12h 31m
Length of Day
11h 39m
Waning Crescent, 0% of the Moon is Illuminated
Oct 4
Waning Crescent
Oct 4
New
Oct 11
First Quarter
Oct 18
Full
Oct 26
Last Quarter

Hourly Weather History & Observations

Time (CDT) Temp. Heat Index Dew Point Humidity Pressure Visibility Wind Dir Wind Speed Gust Speed Precip Events Conditions
12:54 AM 72.0 °F - 64.0 °F 76% 30.01 in 10.0 mi Calm Calm - N/A   Partly Cloudy
1:54 AM 69.1 °F - 64.9 °F 87% 30.01 in 10.0 mi Calm Calm - N/A   Clear
2:54 AM 71.1 °F - 64.0 °F 78% 30.01 in 10.0 mi South 3.5 mph - N/A   Clear
3:54 AM 71.1 °F - 64.9 °F 81% 30.01 in 10.0 mi Calm Calm - N/A   Partly Cloudy
4:54 AM 70.0 °F - 64.9 °F 84% 30.02 in 10.0 mi SE 3.5 mph - N/A   Mostly Cloudy
5:54 AM 69.1 °F - 64.9 °F 87% 30.04 in 10.0 mi Calm Calm - N/A   Partly Cloudy
6:54 AM 69.1 °F - 64.9 °F 87% 30.05 in 10.0 mi South 3.5 mph - N/A   Mostly Cloudy
7:54 AM 70.0 °F - 66.0 °F 87% 30.06 in 9.0 mi SSE 4.6 mph - N/A   Mostly Cloudy
8:54 AM 73.9 °F - 66.9 °F 79% 30.06 in 10.0 mi SSW 5.8 mph - N/A   Overcast
9:54 AM 75.9 °F - 68.0 °F 76% 30.06 in 10.0 mi SSW 10.4 mph - N/A   Clear
10:54 AM 79.0 °F - 69.1 °F 72% 30.06 in 10.0 mi SW 6.9 mph - N/A   Clear
11:54 AM 82.0 °F 85.9 °F 70.0 °F 67% 30.05 in 10.0 mi Variable 4.6 mph - N/A   Scattered Clouds
12:54 PM 82.9 °F 87.0 °F 70.0 °F 65% 30.03 in 10.0 mi SSE 4.6 mph - 0.00 in   Partly Cloudy
1:40 PM 77.0 °F - 71.6 °F 83% 30.04 in 1.8 mi South 5.8 mph - 0.03 in Rain Heavy Rain
1:54 PM 75.9 °F - 72.0 °F 87% 30.03 in 2.0 mi SSE 5.8 mph - 0.11 in Rain Light Rain
2:02 PM 75.2 °F - 71.6 °F 89% 30.03 in 9.0 mi SE 6.9 mph - 0.00 in   Overcast
2:54 PM 77.0 °F - 72.0 °F 84% 30.01 in 10.0 mi SE 4.6 mph - 0.00 in   Scattered Clouds
3:54 PM 81.0 °F 84.4 °F 70.0 °F 69% 29.99 in 10.0 mi ESE 3.5 mph - N/A   Scattered Clouds
4:54 PM 82.9 °F 87.0 °F 70.0 °F 65% 29.98 in 10.0 mi SE 8.1 mph - N/A   Scattered Clouds
5:54 PM 81.0 °F 84.4 °F 70.0 °F 69% 29.99 in 10.0 mi SSE 3.5 mph - N/A   Clear
6:54 PM 79.0 °F - 69.1 °F 72% 30.00 in 10.0 mi SSE 4.6 mph - N/A   Mostly Cloudy
7:54 PM 78.1 °F - 69.1 °F 74% 30.01 in 10.0 mi SSE 3.5 mph - N/A   Mostly Cloudy
8:54 PM 78.1 °F - 69.1 °F 74% 30.02 in 10.0 mi SSE 4.6 mph - N/A   Overcast
9:54 PM 77.0 °F - 70.0 °F 79% 30.03 in 10.0 mi SSE 4.6 mph - N/A   Overcast
10:54 PM 77.0 °F - 69.1 °F 76% 30.03 in 10.0 mi SSE 5.8 mph - N/A   Clear
11:54 PM 75.0 °F - 69.1 °F 82% 30.01 in 10.0 mi South 4.6 mph - N/A   Partly Cloudy